| time (UTC) | temp C | wind direction | speed KPH | gust KPH | rain 1hr cm | rain 24hr cm | rain mn cm | humidity % | barometer mb |
| 20260507074505 | 11 | 182 | 0.0 | 1.6 | 0.00 | 0.00 | 0.00 | 70 | 1016.3 |
| 20260507073100 | 10 | 264 | 0.0 | 3.2 | 0.00 | 0.00 | 0.00 | 73 | 1016.1 |
| 20260507071545 | 10 | 265 | 0.0 | 1.6 | 0.00 | 0.00 | 0.00 | 73 | 1016.1 |
| 20260507070141 | 10 | 244 | 0.0 | 3.2 | 0.00 | 0.00 | 0.00 | 73 | 1016.0 |
| 20260507064604 | 10 | 245 | 0.0 | 1.6 | 0.00 | 0.00 | 0.00 | 74 | 1015.8 |
| 20260507063142 | 10 | 246 | 0.0 | 1.6 | 0.00 | 0.00 | 0.00 | 75 | 1015.8 |
| 20260507061547 | 8 | 202 | 0.0 | 6.4 | 0.00 | 0.00 | 0.00 | 78 | 1015.5 |
| 20260507060057 | 8 | 223 | 0.0 | 4.8 | 0.00 | 0.00 | 0.00 | 82 | 1015.6 |
| 20260507054613 | 7 | 225 | 0.0 | 3.2 | 0.00 | 0.00 | 0.00 | 86 | 1015.4 |
| 20260507053140 | 6 | 219 | 0.0 | 1.6 | 0.00 | 0.00 | 0.00 | 91 | 1015.5 |
| 20260507051607 | 5 | 219 | 0.0 | 1.6 | 0.00 | 0.00 | 0.00 | 91 | 1015.4 |
| 20260507050152 | 3 | 218 | 0.0 | 0.0 | 0.00 | 0.00 | 0.00 | 90 | 1015.2 |
| 20260507044618 | 3 | 218 | 0.0 | 0.0 | 0.00 | 0.00 | 0.00 | 88 | 1015.1 |
| 20260507043009 | 2 | 218 | 0.0 | 0.0 | 0.00 | 0.00 | 0.00 | 88 | 1014.8 |
| 20260507041508 | 2 | 218 | 0.0 | 0.0 | 0.00 | 0.00 | 0.00 | 87 | 1014.6 |
| 20260507040050 | 2 | 218 | 0.0 | 0.0 | 0.00 | 0.00 | 0.00 | 86 | 1014.5 |
| 20260507034518 | 2 | 218 | 0.0 | 0.0 | 0.00 | 0.00 | 0.00 | 86 | 1014.5 |
| 20260507033108 | 2 | 218 | 0.0 | 0.0 | 0.00 | 0.00 | 0.00 | 86 | 1014.5 |
| 20260507031601 | 2 | 218 | 0.0 | 0.0 | 0.00 | 0.00 | 0.00 | 85 | 1014.5 |
| 20260507030154 | 2 | 218 | 0.0 | 0.0 | 0.00 | 0.00 | 0.00 | 85 | 1014.5 |
| 20260507024633 | 3 | 218 | 0.0 | 0.0 | 0.00 | 0.00 | 0.00 | 85 | 1014.3 |
| 20260507023051 | 3 | 218 | 0.0 | 0.0 | 0.00 | 0.00 | 0.00 | 84 | 1014.2 |
| 20260507021549 | 3 | 218 | 0.0 | 0.0 | 0.00 | 0.00 | 0.00 | 83 | 1014.1 |
| 20260507020109 | 3 | 218 | 0.0 | 0.0 | 0.00 | 0.00 | 0.00 | 83 | 1014.1 |
| 20260507014604 | 3 | 218 | 0.0 | 0.0 | 0.00 | 0.00 | 0.00 | 82 | 1014.1 |
| 20260507013106 | 4 | 218 | 0.0 | 0.0 | 0.00 | 0.00 | 0.00 | 82 | 1014.0 |
| 20260507011550 | 5 | 218 | 0.0 | 0.0 | 0.00 | 0.00 | 0.00 | 82 | 1014.0 |
| 20260507010104 | 5 | 218 | 0.0 | 0.0 | 0.00 | 0.00 | 0.00 | 81 | 1014.1 |
| 20260507004548 | 5 | 218 | 0.0 | 0.0 | 0.00 | 0.00 | 0.00 | 81 | 1014.1 |
| 20260507003106 | 6 | 218 | 0.0 | 1.6 | 0.00 | 0.00 | 0.00 | 81 | 1014.0 |
| 20260507001553 | 6 | 218 | 0.0 | 1.6 | 0.00 | 0.00 | 0.00 | 81 | 1014.0 |
| 20260507000109 | 6 | 224 | 0.0 | 3.2 | 0.00 | 0.00 | 0.00 | 81 | 1014.0 |
| 20260506234614 | 6 | 200 | 0.0 | 4.8 | 0.00 | 0.00 | 0.00 | 80 | 1013.7 |
| 20260506233154 | 6 | 192 | 0.0 | 1.6 | 0.00 | 0.00 | 0.00 | 78 | 1013.8 |
| 20260506231517 | 6 | 229 | 0.0 | 1.6 | 0.00 | 0.00 | 0.00 | 77 | 1013.7 |
| 20260506230151 | 6 | 212 | 0.0 | 3.2 | 0.00 | 0.00 | 0.00 | 77 | 1013.7 |
| 20260506224608 | 6 | 235 | 0.0 | 1.6 | 0.00 | 0.00 | 0.00 | 76 | 1013.7 |
| 20260506223147 | 6 | 165 | 0.0 | 1.6 | 0.00 | 0.00 | 0.00 | 76 | 1013.6 |
| 20260506221607 | 6 | 165 | 0.0 | 1.6 | 0.00 | 0.00 | 0.00 | 75 | 1013.5 |
| 20260506220113 | 6 | 161 | 0.0 | 1.6 | 0.00 | 0.00 | 0.00 | 73 | 1013.4 |
| 20260506214604 | 7 | 161 | 0.0 | 1.6 | 0.00 | 0.00 | 0.00 | 73 | 1013.5 |
| 20260506213001 | 7 | 153 | 0.0 | 1.6 | 0.00 | 0.00 | 0.00 | 73 | 1013.3 |
| 20260506211633 | 7 | 250 | 0.0 | 0.0 | 0.00 | 0.00 | 0.00 | 71 | 1013.3 |
| 20260506210007 | 7 | 250 | 0.0 | 0.0 | 0.00 | 0.00 | 0.00 | 71 | 1013.2 |
| 20260506204503 | 7 | 250 | 0.0 | 1.6 | 0.00 | 0.00 | 0.00 | 69 | 1013.1 |
| 20260506203105 | 7 | 250 | 0.0 | 3.2 | 0.00 | 0.00 | 0.00 | 68 | 1013.0 |
| 20260506201600 | 8 | 264 | 0.0 | 1.6 | 0.00 | 0.00 | 0.00 | 66 | 1012.9 |
| 20260506200104 | 8 | 265 | 0.0 | 1.6 | 0.00 | 0.00 | 0.00 | 66 | 1012.9 |
| 20260506194628 | 8 | 265 | 0.0 | 1.6 | 0.00 | 0.00 | 0.00 | 66 | 1012.7 |
| 20260506193112 | 8 | 328 | 0.0 | 1.6 | 0.00 | 0.00 | 0.00 | 67 | 1012.6 |
| 20260506191612 | 8 | 64 | 0.0 | 1.6 | 0.00 | 0.00 | 0.00 | 69 | 1012.5 |
| 20260506190153 | 9 | 64 | 0.0 | 0.0 | 0.00 | 0.00 | 0.00 | 69 | 1012.3 |
| 20260506184618 | 10 | 64 | 0.0 | 0.0 | 0.00 | 0.00 | 0.00 | 68 | 1012.2 |
| 20260506183026 | 10 | 64 | 0.0 | 0.0 | 0.00 | 0.00 | 0.00 | 65 | 1012.1 |
| 20260506181548 | 10 | 60 | 0.0 | 1.6 | 0.00 | 0.00 | 0.00 | 64 | 1012.0 |
| 20260506174602 | 11 | 349 | 0.0 | 6.4 | 0.00 | 0.00 | 0.00 | 64 | 1011.7 |
| 20260506173152 | 11 | 40 | 1.6 | 6.4 | 0.00 | 0.00 | 0.00 | 64 | 1011.7 |
| 20260506171627 | 11 | 12 | 3.2 | 8.0 | 0.00 | 0.00 | 0.00 | 62 | 1011.7 |
| 20260506170112 | 11 | 360 | 1.6 | 8.0 | 0.00 | 0.00 | 0.00 | 61 | 1011.6 |
| 20260506164555 | 11 | 360 | 0.0 | 4.8 | 0.00 | 0.00 | 0.00 | 60 | 1011.5 |
| 20260506163142 | 11 | 355 | 1.6 | 6.4 | 0.00 | 0.00 | 0.00 | 58 | 1011.5 |
| 20260506161601 | 11 | 5 | 1.6 | 6.4 | 0.00 | 0.00 | 0.00 | 59 | 1011.4 |
| 20260506160119 | 11 | 19 | 3.2 | 16.1 | 0.00 | 0.00 | 0.00 | 61 | 1011.4 |
| 20260506154607 | 11 | 9 | 3.2 | 9.7 | 0.00 | 0.00 | 0.00 | 60 | 1011.4 |
| 20260506153152 | 11 | 360 | 4.8 | 12.9 | 0.00 | 0.00 | 0.00 | 59 | 1011.4 |
| 20260506151621 | 11 | 15 | 4.8 | 16.1 | 0.00 | 0.00 | 0.00 | 61 | 1011.3 |
| 20260506150050 | 12 | 19 | 1.6 | 14.5 | 0.00 | 0.00 | 0.00 | 60 | 1011.3 |
| 20260506144514 | 12 | 23 | 4.8 | 12.9 | 0.00 | 0.00 | 0.00 | 58 | 1011.3 |
| 20260506143112 | 12 | 15 | 4.8 | 11.3 | 0.00 | 0.00 | 0.00 | 59 | 1011.3 |
| 20260506141606 | 12 | 15 | 3.2 | 14.5 | 0.00 | 0.00 | 0.00 | 57 | 1011.4 |
| 20260506140114 | 12 | 349 | 3.2 | 14.5 | 0.00 | 0.00 | 0.00 | 58 | 1011.3 |
| 20260506134611 | 12 | 360 | 3.2 | 12.9 | 0.00 | 0.00 | 0.00 | 55 | 1011.3 |
| 20260506133002 | 12 | 51 | 4.8 | 17.7 | 0.00 | 0.00 | 0.00 | 53 | 1011.2 |
| 20260506131543 | 12 | 360 | 6.4 | 14.5 | 0.00 | 0.00 | 0.00 | 53 | 1011.2 |
| 20260506130104 | 12 | 5 | 4.8 | 16.1 | 0.00 | 0.00 | 0.00 | 53 | 1011.1 |
| 20260506124600 | 12 | 12 | 6.4 | 17.7 | 0.00 | 0.00 | 0.00 | 54 | 1011.3 |
| 20260506123151 | 12 | 5 | 3.2 | 14.5 | 0.00 | 0.00 | 0.00 | 58 | 1011.2 |
| 20260506121611 | 12 | 5 | 4.8 | 16.1 | 0.00 | 0.00 | 0.00 | 55 | 1011.3 |
| 20260506120153 | 12 | 39 | 3.2 | 16.1 | 0.00 | 0.00 | 0.00 | 55 | 1011.3 |
| 20260506114614 | 12 | 350 | 6.4 | 17.7 | 0.00 | 0.00 | 0.00 | 58 | 1011.1 |
| 20260506113044 | 12 | 17 | 4.8 | 16.1 | 0.00 | 0.00 | 0.00 | 58 | 1011.2 |
| 20260506111541 | 12 | 29 | 8.0 | 16.1 | 0.00 | 0.00 | 0.00 | 58 | 1011.2 |
| 20260506110100 | 12 | 42 | 6.4 | 14.5 | 0.00 | 0.00 | 0.00 | 58 | 1011.3 |
| 20260506104609 | 12 | 31 | 4.8 | 12.9 | 0.00 | 0.00 | 0.00 | 57 | 1011.2 |
| 20260506101610 | 12 | 11 | 3.2 | 12.9 | 0.00 | 0.00 | 0.00 | 60 | 1011.4 |
| 20260506100041 | 12 | 28 | 3.2 | 12.9 | 0.00 | 0.00 | 0.00 | 59 | 1011.5 |
| 20260506094627 | 11 | 15 | 3.2 | 9.7 | 0.00 | 0.00 | 0.00 | 61 | 1011.5 |
| 20260506093042 | 11 | 20 | 1.6 | 12.9 | 0.00 | 0.00 | 0.00 | 61 | 1011.5 |
| 20260506091542 | 11 | 11 | 4.8 | 14.5 | 0.00 | 0.00 | 0.00 | 59 | 1011.5 |
| 20260506090058 | 11 | 19 | 4.8 | 9.7 | 0.00 | 0.00 | 0.00 | 59 | 1011.5 |
| 20260506084604 | 11 | 5 | 1.6 | 6.4 | 0.00 | 0.00 | 0.00 | 58 | 1011.2 |
| 20260506083145 | 11 | 30 | 3.2 | 9.7 | 0.00 | 0.00 | 0.00 | 57 | 1011.3 |
| 20260506081611 | 11 | 5 | 1.6 | 6.4 | 0.00 | 0.00 | 0.00 | 58 | 1011.3 |